Wilmington, OH

12:33 PM EDT on October 18, 2017 (GMT -0400)
Airborne

Weather History for KILN - January, 2013

Change the Weather History Date:

Saturday, January 19, 2013

  Actual Average (KFFO) Record (KFFO)
Temperature  
Mean Temperature 44 °F -  
Max Temperature 52 °F 32 °F 57 °F (2006)
Min Temperature 35 °F 16 °F 0 °F (1997)
Degree Days  
Heating Degree Days 22    
Moisture  
Dew Point 25 °F    
Average Humidity 51    
Maximum Humidity 64    
Minimum Humidity 34    
Precipitation  
Precipitation 0.00 in - - ()
Sea Level Pressure  
Sea Level Pressure 30.10 in    
Wind  
Wind Speed 19 mph (SSW)    
Max Wind Speed 28 mph    
Max Gust Speed 34 mph    
Visibility 10 miles    
Events      
Averages and records for this station are not official NWS values.
T = Trace of Precipitation, MM = Missing Value Source: NWS Daily Summary

Daily Weather History Graph

Daily Weather History Graph

Search for Another Location

Airport or City:

Trip Planner

Search our weather history database for the weather conditions in past years. The results will help you decide how hot, cold, wet, or windy it might be!

Date:

Astronomy

Jan. 19, 2013 Rise Set
Actual Time 7:51 AM EST 5:40 PM EST
Civil Twilight 7:22 AM EST 6:09 PM EST
Nautical Twilight 6:49 AM EST 6:42 PM EST
Astronomical Twilight 6:17 AM EST 7:14 PM EST
Moon 12:05 PM EST (1/19) 1:25 AM EST (1/19)
Length of Visible Light 10h 47m
Length of Day
9h 48m
First Quarter, 57% of the Moon is Illuminated
Jan 19
First Quarter
Jan 26
Full
Feb 3
Last Quarter
Feb 10
New
Feb 17
First Quarter

Hourly Weather History & Observations

Time (EST) Temp. Windchill Dew Point Humidity Pressure Visibility Wind Dir Wind Speed Gust Speed Precip Events Conditions
12:54 AM 35.1 °F 25.5 °F 21.9 °F 59% 30.27 in 10.0 mi SSW 15.0 mph - N/A   Clear
1:54 AM 36.0 °F 25.3 °F 21.0 °F 55% 30.26 in 10.0 mi SSW 19.6 mph - N/A   Clear
2:54 AM 36.0 °F 26.3 °F 23.0 °F 59% 30.25 in 10.0 mi SSW 16.1 mph - N/A   Clear
3:54 AM 36.0 °F 26.0 °F 23.0 °F 59% 30.24 in 10.0 mi SSW 17.3 mph - N/A   Clear
4:54 AM 35.1 °F 24.8 °F 23.0 °F 61% 30.22 in 10.0 mi SSW 17.3 mph - N/A   Clear
5:54 AM 35.1 °F 25.2 °F 23.0 °F 61% 30.23 in 10.0 mi SW 16.1 mph - N/A   Clear
6:54 AM 35.1 °F 24.8 °F 23.0 °F 61% 30.22 in 10.0 mi SSW 17.3 mph - N/A   Clear
7:54 AM 35.1 °F 24.5 °F 24.1 °F 64% 30.23 in 10.0 mi SSW 18.4 mph 25.3 mph N/A   Clear
8:54 AM 37.9 °F 28.9 °F 25.0 °F 60% 30.22 in 10.0 mi SSW 16.1 mph - N/A   Clear
9:54 AM 39.9 °F 29.5 °F 25.0 °F 55% 30.22 in 10.0 mi SW 24.2 mph 29.9 mph N/A   Clear
10:54 AM 43.0 °F 32.9 °F 26.1 °F 51% 30.19 in 10.0 mi SSW 27.6 mph 33.4 mph N/A   Clear
11:54 AM 46.9 °F - 27.0 °F 46% 30.15 in 10.0 mi SW 21.9 mph 33.4 mph N/A   Clear
12:54 PM 48.9 °F - 25.0 °F 39% 30.09 in 10.0 mi SSW 24.2 mph 34.5 mph N/A   Clear
1:54 PM 51.1 °F - 24.1 °F 35% 30.05 in 10.0 mi SW 23.0 mph 33.4 mph N/A   Clear
2:54 PM 52.0 °F - 24.1 °F 34% 30.02 in 10.0 mi SSW 20.7 mph 32.2 mph N/A   Clear
3:54 PM 52.0 °F - 26.1 °F 37% 29.99 in 10.0 mi SSW 20.7 mph 28.8 mph N/A   Clear
4:54 PM 50.0 °F - 26.1 °F 39% 29.98 in 10.0 mi SSW 18.4 mph 32.2 mph N/A   Clear
5:54 PM 48.0 °F - 26.1 °F 42% 29.95 in 10.0 mi SSW 20.7 mph 28.8 mph N/A   Clear
6:54 PM 46.9 °F - 25.0 °F 42% 29.94 in 10.0 mi SSW 20.7 mph 31.1 mph N/A   Clear
7:54 PM 46.0 °F 38.0 °F 26.1 °F 46% 29.96 in 10.0 mi SW 21.9 mph 29.9 mph N/A   Clear
8:54 PM 45.0 °F 37.4 °F 27.0 °F 49% 29.96 in 10.0 mi SW 18.4 mph - N/A   Clear
9:54 PM 44.1 °F 36.2 °F 28.0 °F 53% 29.95 in 10.0 mi SSW 18.4 mph 31.1 mph N/A   Clear
10:54 PM 44.1 °F 35.7 °F 28.0 °F 53% 29.94 in 10.0 mi SW 20.7 mph 27.6 mph N/A   Clear
11:54 PM 45.0 °F 36.9 °F 28.9 °F 53% 29.93 in 10.0 mi SW 20.7 mph 27.6 mph N/A   Clear